Wisconsin Dells, Wisconsin, United States (53965)
Lat: 43.63N, Lon: 89.77W
Wx Zone: WIZ057
Local Info
Past Weather Observations for Today

NOTE: This archive is for the closest National Weather Service station to Wisconsin Dells. Information may differ from the station used for current weather conditions.

Click here for Long-term Archive

Time Weather Temperature Dewpoint Humidity Pressure Winds Precip Visibility
14:55
Overcast
Light Snow
28°F / -2°C 25°F / -4°C 86% 29.39 in
(995 mb)
W 16.1 mph
(W 26 kph)
- 1SM
14:35
Overcast
Light Snow
28°F / -2°C 27°F / -3°C 93% 29.36 in
(994 mb)
W 13.8 mph
(W 22 kph)
- 1SM
14:15
Overcast
Light Snow
28°F / -2°C 27°F / -3°C 93% 29.33 in
(993 mb)
W 13.8 mph
(W 22 kph)
- 3/4SM
13:55
Overcast
Light Snow
28°F / -2°C 27°F / -3°C 93% 29.33 in
(993 mb)
W 12.7 mph
(W 20 kph)
- 3/4SM
13:35
Overcast
Light Snow
28°F / -2°C 27°F / -3°C 93% 29.3 in
(992 mb)
W 13.8 mph
(W 22 kph)
- 1SM
13:15
Overcast
Light Snow
28°F / -2°C 27°F / -3°C 93% 29.3 in
(992 mb)
W 12.7 mph
(W 20 kph)
- 3/4SM
12:55
Overcast
Light Snow
30°F / -1°C 28°F / -2°C 93% 29.27 in
(991 mb)
W 13.8 mph
(W 22 kph)
- 1SM
12:35
Overcast
Light Snow
30°F / -1°C 28°F / -2°C 93% 29.27 in
(991 mb)
W 13.8 mph
(W 22 kph)
- 3/4SM
12:15
Overcast
Snow
30°F / -1°C 30°F / -1°C 100% 29.24 in
(990 mb)
W 11.5 mph
(W 19 kph)
- 1/2SM
11:55
Overcast
Snow
32°F / 0°C 30°F / -1°C 93% 29.24 in
(990 mb)
W 9.2 mph
(W 15 kph)
0.03 in
(0.76 mm)
1/2SM
11:35
Overcast
Snow
32°F / 0°C 32°F / 0°C 100% 29.21 in
(989 mb)
W 12.7 mph
(W 20 kph)
0.02 in
(0.51 mm)
1/2SM
11:15
Overcast
Snow
32°F / 0°C 32°F / 0°C 100% 29.21 in
(989 mb)
WNW 15 mph
(WNW 24 kph)
0.01 in
(0.25 mm)
1/4SM
10:55
Overcast
Snow
32°F / 0°C 32°F / 0°C 100% 29.18 in
(988 mb)
W 15 mph
(W 24 kph)
0.05 in
(1.27 mm)
1/2SM
10:35
Overcast
Light Snow
32°F / 0°C 32°F / 0°C 100% 29.18 in
(988 mb)
WNW 12.7 mph
(WNW 20 kph)
0.02 in
(0.51 mm)
1SM
10:15
Overcast
Unknown Precip
32°F / 0°C 32°F / 0°C 100% 29.18 in
(988 mb)
WNW 12.7 mph
(WNW 20 kph)
0.01 in
(0.25 mm)
1 1/4SM
09:55
Overcast
Light Rain
34°F / 1°C 32°F / 0°C 93% 29.18 in
(988 mb)
WNW 9.2 mph
(WNW 15 kph)
0.01 in
(0.25 mm)
1 1/2SM
09:35
Overcast
Light Rain
34°F / 1°C 34°F / 1°C 100% 29.15 in
(987 mb)
WNW 9.2 mph
(WNW 15 kph)
- 1 3/4SM
09:15
Overcast
Light Rain
36°F / 2°C 34°F / 1°C 93% 29.15 in
(987 mb)
WNW 10.4 mph
(WNW 17 kph)
- 1 1/2SM
08:55
Overcast
Drizzle
36°F / 2°C 34°F / 1°C 93% 29.15 in
(987 mb)
WNW 10.4 mph
(WNW 17 kph)
- 1 1/2SM
08:35
Overcast
Drizzle
36°F / 2°C 34°F / 1°C 93% 29.15 in
(987 mb)
WNW 9.2 mph
(WNW 15 kph)
- 1 1/4SM
08:15
Overcast
Drizzle
36°F / 2°C 34°F / 1°C 93% 29.12 in
(986 mb)
NW 9.2 mph
(NW 15 kph)
- 1SM
07:55
Overcast
Fog And Mist
36°F / 2°C 36°F / 2°C 100% 29.12 in
(986 mb)
W 9.2 mph
(W 15 kph)
- 1 1/4SM
07:35
Overcast
Fog And Mist
36°F / 2°C 36°F / 2°C 100% 29.12 in
(986 mb)
WNW 10.4 mph
(WNW 17 kph)
- 1 1/4SM
07:15
Overcast
Fog And Mist
37°F / 3°C 36°F / 2°C 93% 29.12 in
(986 mb)
WNW 8.1 mph
(WNW 13 kph)
- 2SM
06:55
Overcast
Fog And Mist
37°F / 3°C 36°F / 2°C 93% 29.09 in
(985 mb)
NW 8.1 mph
(NW 13 kph)
- 3SM
06:35
Overcast
Fog And Mist
37°F / 3°C 36°F / 2°C 93% 29.09 in
(985 mb)
NW 10.4 mph
(NW 17 kph)
- 5SM
06:15
Overcast
Fog And Mist
37°F / 3°C 37°F / 3°C 100% 29.09 in
(985 mb)
NW 6.9 mph
(NW 11 kph)
- 3SM
05:55
Overcast
Fog And Mist
37°F / 3°C 37°F / 3°C 100% 29.09 in
(985 mb)
NW 5.8 mph
(NW 9 kph)
- 3SM
05:35
Overcast
Fog And Mist
37°F / 3°C 37°F / 3°C 100% 29.09 in
(985 mb)
WNW 8.1 mph
(WNW 13 kph)
- 4SM
05:15
Overcast
37°F / 3°C 37°F / 3°C 100% 29.09 in
(985 mb)
WNW 9.2 mph
(WNW 15 kph)
- 10SM
04:55
Overcast
37°F / 3°C 37°F / 3°C 100% 29.09 in
(985 mb)
NW 6.9 mph
(NW 11 kph)
- 10SM
04:35
Overcast
39°F / 4°C 37°F / 3°C 93% 29.09 in
(985 mb)
NW 10.4 mph
(NW 17 kph)
- 10SM
04:15
Overcast
39°F / 4°C 39°F / 4°C 100% 29.09 in
(985 mb)
WNW 6.9 mph
(WNW 11 kph)
- 10SM
03:55
Overcast
39°F / 4°C 39°F / 4°C 100% 29.09 in
(985 mb)
NW 11.5 mph
(NW 19 kph)
- 10SM
03:35
Overcast
41°F / 5°C 39°F / 4°C 93% 29.09 in
(985 mb)
NW 10.4 mph
(NW 17 kph)
- 10SM
03:15
Overcast
Drizzle
43°F / 6°C 41°F / 5°C 93% 29.09 in
(985 mb)
NW 15 mph
(NW 24 kph)
- 3SM
02:55
Overcast
Fog And Mist
45°F / 7°C 43°F / 6°C 93% 29.06 in
(984 mb)
NW 8.1 mph
(NW 13 kph)
- 1 1/2SM
02:35
Overcast
Drizzle
45°F / 7°C 43°F / 6°C 93% 29.09 in
(985 mb)
WNW 6.9 mph
(WNW 11 kph)
- 1/2SM
02:15
Overcast
Drizzle
45°F / 7°C 43°F / 6°C 93% 29.09 in
(985 mb)
WNW 3.5 mph
(WNW 6 kph)
- 1/2SM
01:55
Overcast
Fog
45°F / 7°C 43°F / 6°C 93% 29.09 in
(985 mb)
WNW 3.5 mph
(WNW 6 kph)
- 1/4SM
01:35
Overcast
Drizzle
45°F / 7°C 43°F / 6°C 93% 29.09 in
(985 mb)
W 3.5 mph
(W 6 kph)
- 1/4SM
01:15
Overcast
Drizzle
45°F / 7°C 43°F / 6°C 93% 29.09 in
(985 mb)
Calm - 1/4SM
00:55
Overcast
Drizzle
45°F / 7°C 43°F / 6°C 93% 29.09 in
(985 mb)
Calm 0.01 in
(0.25 mm)
1/4SM
00:35
Overcast
Drizzle
45°F / 7°C 43°F / 6°C 93% 29.09 in
(985 mb)
Calm 0.01 in
(0.25 mm)
1/4SM
00:15
Overcast
Drizzle
45°F / 7°C 43°F / 6°C 93% 29.12 in
(986 mb)
Calm 0.01 in
(0.25 mm)
1/4SM
Time Weather Temperature Dewpoint Humidity Pressure Winds Precip Visibility


Weather for websites

WeatherForYou.com, LLC is not responsible for any damages or problems caused by this service. Current weather conditions are obtained from the closest station including government and personal stations which may have varying degrees of accuracy. Weather forecasts are derived from the NOAA NDFD. Like all things, this site belongs to Jesus Christ... He just trusts me to maintain it. If you have any questions or comments email webmaster@weatherforyou.com

Copyright © 2014, WeatherForYou.com LLC. All rights reserved.